Atoka, OK

9:43 AM CDT on April 23, 2018 (GMT -0500)
Atoka Municipal

Weather History for KAQR - April, 2014

Change the Weather History Date:

Thursday, April 10, 2014

  Actual Average (KMLC) Record (KMLC)
Temperature  
Mean Temperature 68 °F -  
Max Temperature 82 °F 71 °F 87 °F (1965)
Min Temperature 53 °F 48 °F 28 °F (2003)
Cooling Degree Days 2    
Growing Degree Days 18 (Base 50)    
Moisture  
Dew Point 52 °F    
Average Humidity 57    
Maximum Humidity 88    
Minimum Humidity 39    
Precipitation  
Precipitation 0.00 in - - ()
Sea Level Pressure  
Sea Level Pressure 29.92 in    
Wind  
Wind Speed 10 mph (SSE)    
Max Wind Speed 22 mph    
Max Gust Speed 31 mph    
Visibility 10 miles    
Events      
Averages and records for this station are not official NWS values.
T = Trace of Precipitation, MM = Missing Value Source: NWS Daily Summary

Daily Weather History Graph

Daily Weather History Graph

Search for Another Location

Airport or City:

Astronomy

Apr. 10, 2014 Rise Set
Actual Time 6:59 AM CDT 7:52 PM CDT
Civil Twilight 6:34 AM CDT 8:18 PM CDT
Nautical Twilight 6:03 AM CDT 8:48 PM CDT
Astronomical Twilight 5:32 AM CDT 9:19 PM CDT
Moon 3:47 PM CDT (4/10) 4:11 AM CDT (4/10)
Length of Visible Light 13h 44m
Length of Day
12h 52m
Waxing Gibbous, 80% of the Moon is Illuminated
Apr 10
Waxing Gibbous
Apr 15
Full
Apr 22
Last Quarter
Apr 29
New
May 6
First Quarter

Hourly Weather History & Observations

Time (CDT) Temp. Heat Index Dew Point Humidity Pressure Visibility Wind Dir Wind Speed Gust Speed Precip Events Conditions
12:15 AM 64.4 °F - 46.4 °F 52% 29.99 in 10.0 mi SSE 9.2 mph - N/A   Clear
12:35 AM 64.4 °F - 46.4 °F 52% 29.99 in 10.0 mi South 6.9 mph - N/A   Clear
12:55 AM 62.6 °F - 46.4 °F 55% 29.99 in 10.0 mi SSE 8.1 mph - N/A   Clear
1:15 AM 62.6 °F - 46.4 °F 55% 29.98 in 10.0 mi SSE 6.9 mph - N/A   Clear
1:35 AM 62.6 °F - 46.4 °F 55% 29.98 in 10.0 mi South 8.1 mph - N/A   Clear
1:55 AM 62.6 °F - 46.4 °F 55% 29.97 in 10.0 mi South 6.9 mph - N/A   Clear
2:15 AM 62.6 °F - 46.4 °F 55% 29.97 in 10.0 mi South 9.2 mph - N/A   Clear
2:35 AM 62.6 °F - 46.4 °F 55% 29.96 in 10.0 mi South 8.1 mph - N/A   Clear
2:55 AM 62.6 °F - 46.4 °F 55% 29.96 in 10.0 mi SSE 6.9 mph - N/A   Clear
3:15 AM 60.8 °F - 48.2 °F 63% 29.95 in 10.0 mi SSE 8.1 mph - N/A   Clear
3:35 AM 60.8 °F - 48.2 °F 63% 29.95 in 10.0 mi SSE 6.9 mph - N/A   Clear
3:55 AM 60.8 °F - 48.2 °F 63% 29.94 in 10.0 mi SSE 9.2 mph - N/A   Clear
4:15 AM 60.8 °F - 50.0 °F 68% 29.94 in 10.0 mi SSE 6.9 mph - N/A   Clear
4:35 AM 60.8 °F - 50.0 °F 68% 29.94 in 10.0 mi SSE 6.9 mph - N/A   Clear
4:55 AM 59.0 °F - 50.0 °F 72% 29.94 in 10.0 mi SSE 8.1 mph - N/A   Clear
5:15 AM 59.0 °F - 50.0 °F 72% 29.94 in 10.0 mi SSE 6.9 mph - N/A   Clear
5:35 AM 59.0 °F - 50.0 °F 72% 29.93 in 10.0 mi SSE 3.5 mph - N/A   Clear
5:55 AM 55.4 °F - 50.0 °F 82% 29.94 in 10.0 mi SSE 3.5 mph - N/A   Clear
6:15 AM 53.6 °F - 50.0 °F 88% 29.93 in 10.0 mi SE 3.5 mph - N/A   Clear
6:35 AM 53.6 °F - 50.0 °F 88% 29.93 in 10.0 mi SE 4.6 mph - N/A   Clear
6:55 AM 55.4 °F - 51.8 °F 88% 29.94 in 10.0 mi SSE 6.9 mph - N/A   Clear
7:35 AM 59.0 °F - 51.8 °F 77% 29.94 in 10.0 mi SSE 9.2 mph - N/A   Clear
7:55 AM 59.0 °F - 51.8 °F 77% 29.95 in 10.0 mi SSE 6.9 mph - N/A   Clear
8:15 AM 60.8 °F - 53.6 °F 77% 29.96 in 10.0 mi SSE 8.1 mph - N/A   Clear
8:35 AM 60.8 °F - 53.6 °F 77% 29.96 in 10.0 mi South 11.5 mph 17.3 mph N/A   Clear
8:55 AM 62.6 °F - 53.6 °F 72% 29.95 in 10.0 mi South 11.5 mph 19.6 mph N/A   Clear
9:15 AM 64.4 °F - 53.6 °F 68% 29.95 in 10.0 mi South 12.7 mph 23.0 mph N/A   Clear
9:35 AM 64.4 °F - 53.6 °F 68% 29.94 in 10.0 mi South 15.0 mph 20.7 mph N/A   Clear
9:55 AM 68.0 °F - 53.6 °F 60% 29.94 in 10.0 mi South 13.8 mph 24.2 mph N/A   Clear
10:15 AM 68.0 °F - 53.6 °F 60% 29.94 in 10.0 mi South 18.4 mph 25.3 mph N/A   Clear
10:35 AM 69.8 °F - 53.6 °F 56% 29.94 in 10.0 mi South 18.4 mph 25.3 mph N/A   Clear
10:55 AM 71.6 °F - 53.6 °F 53% 29.94 in 10.0 mi South 15.0 mph 23.0 mph N/A   Clear
11:15 AM 73.4 °F - 53.6 °F 50% 29.93 in 10.0 mi South 16.1 mph 25.3 mph N/A   Clear
11:35 AM 73.4 °F - 53.6 °F 50% 29.92 in 10.0 mi South 15.0 mph 25.3 mph N/A   Clear
11:55 AM 73.4 °F - 53.6 °F 50% 29.92 in 10.0 mi South 17.3 mph 23.0 mph N/A   Clear
12:15 PM 77.0 °F - 51.8 °F 41% 29.91 in 10.0 mi South 18.4 mph 24.2 mph N/A   Clear
12:35 PM 77.0 °F - 51.8 °F 41% 29.91 in 10.0 mi SSW 15.0 mph 25.3 mph N/A   Clear
1:15 PM 78.8 °F - 55.4 °F 44% 29.89 in 10.0 mi South 15.0 mph 18.4 mph N/A   Clear
1:55 PM 80.6 °F 80.3 °F 53.6 °F 39% 29.89 in 10.0 mi SSW 18.4 mph 25.3 mph N/A   Clear
2:15 PM 78.8 °F - 53.6 °F 42% 29.88 in 10.0 mi South 21.9 mph 27.6 mph N/A   Clear
2:35 PM 80.6 °F 80.3 °F 53.6 °F 39% 29.88 in 10.0 mi South 15.0 mph 23.0 mph N/A   Clear
2:55 PM 80.6 °F 80.5 °F 55.4 °F 42% 29.87 in 10.0 mi South 17.3 mph 27.6 mph N/A   Clear
3:15 PM 80.6 °F 80.3 °F 53.6 °F 39% 29.86 in 10.0 mi South 18.4 mph 25.3 mph N/A   Clear
3:35 PM 80.6 °F 80.5 °F 55.4 °F 42% 29.86 in 10.0 mi South 18.4 mph 31.1 mph N/A   Clear
3:55 PM 80.6 °F 80.5 °F 55.4 °F 42% 29.86 in 10.0 mi South 20.7 mph 26.5 mph N/A   Clear
4:15 PM 80.6 °F 80.3 °F 53.6 °F 39% 29.85 in 10.0 mi South 19.6 mph 28.8 mph N/A   Clear
4:35 PM 82.4 °F 81.7 °F 55.4 °F 39% 29.85 in 10.0 mi SSW 16.1 mph 25.3 mph N/A   Clear
4:55 PM 80.6 °F 80.5 °F 55.4 °F 42% 29.85 in 10.0 mi South 15.0 mph 28.8 mph N/A   Clear
5:15 PM 80.6 °F 80.3 °F 53.6 °F 39% 29.85 in 10.0 mi South 13.8 mph 25.3 mph N/A   Clear
5:55 PM 80.6 °F 80.3 °F 53.6 °F 39% 29.85 in 10.0 mi South 16.1 mph 24.2 mph N/A   Clear
6:35 PM 78.8 °F - 53.6 °F 42% 29.86 in 10.0 mi South 12.7 mph 26.5 mph N/A   Clear
6:55 PM 78.8 °F - 53.6 °F 42% 29.86 in 10.0 mi South 16.1 mph 21.9 mph N/A   Clear
7:15 PM 78.8 °F - 53.6 °F 42% 29.86 in 10.0 mi South 6.9 mph - N/A   Clear
7:35 PM 77.0 °F - 55.4 °F 47% 29.86 in 10.0 mi South 8.1 mph - N/A   Clear
7:55 PM 75.2 °F - 55.4 °F 50% 29.87 in 10.0 mi SSE 8.1 mph - N/A   Clear
8:15 PM 75.2 °F - 53.6 °F 47% 29.88 in 10.0 mi SSE 6.9 mph - N/A   Clear
8:35 PM 73.4 °F - 55.4 °F 53% 29.88 in 10.0 mi SSE 6.9 mph - N/A   Clear
9:15 PM 71.6 °F - 53.6 °F 53% 29.89 in 10.0 mi SSE 4.6 mph - N/A   Clear
9:35 PM 69.8 °F - 53.6 °F 56% 29.90 in 10.0 mi SE 4.6 mph - N/A   Clear
9:55 PM 69.8 °F - 55.4 °F 60% 29.91 in 10.0 mi SE 4.6 mph - N/A   Clear
10:15 PM 69.8 °F - 55.4 °F 60% 29.92 in 10.0 mi SE 5.8 mph - N/A   Clear
10:35 PM 69.8 °F - 53.6 °F 56% 29.92 in 10.0 mi SSE 5.8 mph - N/A   Clear
10:55 PM 69.8 °F - 53.6 °F 56% 29.91 in 10.0 mi SSE 5.8 mph - N/A   Clear
11:15 PM 69.8 °F - 55.4 °F 60% 29.91 in 10.0 mi SE 5.8 mph - N/A   Clear
11:35 PM 68.0 °F - 55.4 °F 64% 29.92 in 10.0 mi SE 4.6 mph - N/A   Clear
11:55 PM 68.0 °F - 55.4 °F 64% 29.92 in 10.0 mi SE 4.6 mph - N/A   Clear